Preview of NWS' New Version of Forecast
This preview is not operational and should not be used for support decisions.
Latest weather observations around

Louisville, Bowman Field Airport (KLOU)

Using English Units (Switch to International System of Units)
Date/ Time (EST) Wind (mph) Vis. (mi) Weather Sky Cond. Temp (°F) Rel. Humidity Wind Chill (°F) Heat Index (°F) Pressure Precip. (in)
Air Dwpt 6 hour Altimeter (inHg) Sea level (inHg) 1 hr 3 hr 6 hr
Max Min
Jan 18 14:53 Calm 10 Cloudy OVC017 42 32     67%     30.11 30.12      
Jan 18 13:53 ESE 6 10 Cloudy OVC015 41 32     70% 37   30.12 30.12      
Jan 18 13:38 ESE 7 10 Cloudy OVC015 41 32     70% 36   30.12        
Jan 18 12:53 Calm 10 Cloudy OVC014 41 32     70%     30.15 30.16      
Jan 18 11:53 Calm 10 Cloudy OVC013 41 32     70%     30.19 30.19      
Jan 18 10:53 Calm 10 Cloudy OVC012 40 33     76%     30.18 30.19      
Jan 18 09:53 Calm 10 Cloudy OVC011 40 32     73%     30.17 30.17      
Jan 18 08:53 Calm 10 Cloudy OVC012 39 32     76%     30.16 30.16      
Jan 18 07:53 WNW 3 10 Cloudy OVC014 40 32     73% 38   30.15 30.16      
Jan 18 07:39 N 5 10 Cloudy OVC014 40 32     73% 37   30.15        
Jan 18 06:53 NNW 6 10 Cloudy OVC016 40 32     73% 36   30.12 30.12      
Jan 18 05:53 NW 5 10 Cloudy OVC021 40 34     79% 37   30.12 30.12      
Jan 18 04:53 W 7 10 Cloudy BKN015 OVC021 41 35     79% 36   30.12 30.12      
Jan 18 03:53 WSW 5 10 Cloudy FEW015 OVC020 42 36     79% 39   30.12 30.12      
Jan 18 03:20 W 3 10 Cloudy SCT014 OVC024 42 36     79% 40   30.12        
Jan 18 02:53 W 5 10 Cloudy BKN013 OVC024 42 36     79% 39   30.12 30.12      
Jan 18 02:32 W 6 10 Cloudy BKN014 OVC026 42 36     79% 38   30.12        
Jan 18 01:53 W 5 10 Cloudy FEW020 OVC028 42 36     79% 39   30.1 30.1      
Jan 18 00:53 WNW 6 10 Cloudy OVC023 43 36     76% 39   30.1 30.1     0
Jan 17 23:53 WNW 6 10 Cloudy OVC017 43 36     76% 39   30.09 30.09      
Jan 17 22:53 WNW 9 10 Cloudy OVC016 44 37     76% 39   30.08 30.08      
Jan 17 22:28 WNW 10 10 Cloudy OVC016 45 38     76% 40   30.07        
Jan 17 22:05 WNW 9 10 Cloudy BKN014 OVC020 45 38     76% 40   30.05        
Jan 17 21:53 W 7 10 Cloudy FEW014 OVC023 46 40     79% 42   30.05 30.05   0  
Jan 17 21:00   10 Cloudy OVC023 46 41     82%     30.05        
Jan 17 20:53   10 Cloudy FEW005 BKN009 OVC028 46 41     82%     30.05 30.05      
Jan 17 19:53   7 Cloudy SCT007 BKN009 OVC026 46 42     86%     30.03 30.03 0    
Jan 17 19:31 SW 6 5 Fog/Mist BKN007 OVC013 46 42     86% 43   30.02   0    
Jan 17 19:03 WSW 6 4 Fog/Mist OVC008 46 42     86% 43   30.02        
Jan 17 18:53 SW 6 5 Fog/Mist OVC010 46 42     86% 43   30.01 30.01     0
Jan 17 18:15 SW 7 10 Cloudy BKN010 OVC014 46 42     86% 42   30        
Jan 17 17:53 WSW 7 10 Cloudy OVC009 46 42     86% 42   30 30 0    
Jan 17 17:42 SW 6 8 Cloudy OVC009 46 42     86% 43   29.99   0    
Jan 17 16:53 S 6 8 Light Rain OVC007 46 42     86% 43   29.99 29.99 0    
Jan 17 16:50 S 7 9 Light Rain OVC007 46 43     87% 43   29.99   0    
Jan 17 16:39 SSW 7 8 Light Rain OVC008 46 42     86% 42   29.99   0    
Jan 17 16:21 S 7 7 Light Rain OVC006 46 42     86% 42   29.99   0    
Jan 17 15:53 SSW 6 3 Light Rain and Fog/Mist OVC005 46 42     86% 43   29.99 29.99 0 0  
Jan 17 15:44 SSW 6 2.5 Light Rain and Fog/Mist OVC005 46 42     86% 43   29.99   0    
Jan 17 15:28 SSW 6 4 Light Rain OVC005 46 41     82% 43   29.99   0    
Jan 17 15:16 SSW 7 2.5 Light Rain and Fog/Mist OVC005 45 41     86% 41   29.99   0    
Jan 17 15:08 SSW 6 2.5 Light Rain and Fog/Mist OVC006 45 41     86% 42   29.99   0    
Jan 17 14:53 S 9 4 Fog/Mist OVC006 45 41     86% 40   29.99 29.99      
Jan 17 14:00 S 9 6 Haze OVC007 45 40     82% 40   30        
Jan 17 13:53 S 8 7 Cloudy OVC008 45 40     82% 41   30 30.01 0    
Jan 17 13:41 S 8 6 Haze OVC008 45 40     82% 41   30.01   0    
Jan 17 12:53 S 7 6 Light Rain and Fog/Mist OVC006 44 40     85% 40   30.04 30.04 0   0
Jan 17 12:10 S 8 3 Light Rain OVC006 44 39     82% 40   30.07   0    
Jan 17 11:53 SSE 7 3 Light Rain and Fog/Mist OVC008 43 39     86% 39   30.08 30.08 0    
Jan 17 11:43 SSE 8 3 Rain and Fog/Mist OVC009 43 39     86% 38   30.08   0    
Jan 17 11:33 SSE 8 2.5 Rain OVC009 43 38     82% 38   30.09   0    
Jan 17 11:23 SSE 7 1.75 Rain BKN010 BKN022 OVC034 43 38     82% 39   30.09   0    
Jan 17 11:10 SE 8 5 Light Rain FEW011 BKN020 OVC036 44 37     76% 40   30.09   0    
Jan 17 10:53 SE 8 6 Light Rain SCT020 BKN040 OVC050 44 37     76% 40   30.09 30.09 0    
Jan 17 09:53 SSE 8 8 Light Rain BKN035 OVC049 43 36     76% 38   30.1 30.11 0 0  
Jan 17 08:53 ESE 8 7 Cloudy OVC031 42 35     76% 37   30.09 30.1 0    
Jan 17 08:40 SE 7 6 Light Rain OVC030 42 35     76% 38   30.09   0    
Jan 17 08:04 ESE 6 7 Cloudy OVC029 41 35     79% 37   30.11        
Jan 17 07:53 SE 6 8 Cloudy OVC030 41 35     79% 37   30.12 30.12 0    
Jan 17 06:53 ESE 7 8 Cloudy OVC044 41 34     76% 36   30.12 30.13      
Jan 17 05:53 ESE 8 8 Cloudy OVC045 41 34     76% 36   30.14 30.14      
Jan 17 04:53 ESE 6 8 Cloudy OVC050 40 34     79% 36   30.17 30.18      
Jan 17 03:53 SE 6 8 Cloudy BKN041 OVC050 41 33     73% 37   30.2 30.2      
Jan 17 03:27 ESE 8 8 Cloudy SCT029 OVC050 40 33     76% 34   30.19        
Jan 17 02:53 ESE 5 8 Cloudy OVC027 40 33     76% 37   30.2 30.21      
Jan 17 01:53 SE 5 8 Cloudy OVC025 40 33     76% 37   30.21 30.22      
Jan 17 00:53 SE 3 8 Cloudy OVC029 41 33     73% 39   30.23 30.23      
Jan 17 00:49 SE 5 8 Cloudy OVC029 41 34     75% 38   30.23        
Jan 16 23:53 ESE 7 8 Cloudy OVC034 41 33     73% 36   30.24 30.25      
Jan 16 22:53 E 6 7 Cloudy SCT027 OVC040 41 33     73% 37   30.26 30.27      
Jan 16 21:53 Calm 8 Cloudy OVC029 41 33     73%     30.26 30.27      
Jan 16 21:46 Calm 8 Cloudy OVC028 41 33     73%     30.27        
Jan 16 20:53 Calm 8 Cloudy FEW021 OVC030 41 33     73%     30.27 30.28      
Jan 16 20:46 Calm 8 Cloudy SCT023 OVC030 41 33     73%     30.27        
Jan 16 19:53 ESE 5 8 Cloudy OVC024 41 33     73% 38   30.26 30.27      
Jan 16 18:53 SE 6 8 Cloudy SCT019 OVC027 41 34     76% 37   30.25 30.25      
Jan 16 18:00 SE 6 8 Cloudy OVC025 41 34     76% 37   30.24        
Jan 16 17:53 SE 5 7 Cloudy BKN014 OVC023 41 34     76% 38   30.24 30.24      
Jan 16 16:53 S 6 6 Haze BKN014 OVC023 42 34     73% 38   30.25 30.26      
Jan 16 16:15 SSE 5 6 Haze OVC019 42 34     73% 39   30.25        
Jan 16 15:53 SW 5 6 Haze BKN014 OVC021 42 34     73% 39   30.25 30.26      
Jan 16 14:53 SSE 6 6 Haze OVC012 41 34     76% 37   30.23 30.24      
Jan 16 13:53 N 5 5 Haze BKN008 BKN019 OVC026 41 34     76% 38   30.24 30.25      
Jan 16 13:22 S 7 5 Haze BKN008 OVC015 40 34     79% 35   30.25        
Jan 16 12:53 S 7 7 Cloudy BKN014 OVC019 41 34     76% 36   30.26 30.27      
Jan 16 12:50 S 6 7 Cloudy BKN014 OVC019 41 34     75% 37   30.27        
Jan 16 12:25 SSW 6 9 Cloudy OVC015 41 33     73% 37   30.27        
Jan 16 12:15 SSW 5 10 Cloudy OVC014 40 33     76% 37   30.27        
Jan 16 11:53 SW 6 10 Cloudy SCT014 OVC023 40 32     73% 36   30.28 30.29      
Jan 16 10:53 WSW 3 10 Cloudy OVC019 40 32     73% 38   30.29 30.3      
Jan 16 09:53 WNW 3 10 Cloudy OVC019 39 31     72% 37   30.27 30.28      
Jan 16 09:00 W 7 10 Cloudy OVC015 38 31     76% 33   30.26        
Jan 16 08:53 WNW 8 9 Cloudy OVC014 38 31     76% 32   30.26 30.27      
Jan 16 07:53 W 7 6 Haze OVC011 38 33     82% 33   30.25 30.26      
Jan 16 07:14 SW 7 5 Haze BKN009 OVC014 38 33     82% 33   30.23        
Jan 16 06:53 SW 6 3 Haze OVC013 38 33     82% 33   30.23 30.24      
Jan 16 05:53 SW 8 5 Haze OVC012 38 32     79% 32   30.21 30.22      
Jan 16 04:53 SW 8 9 Cloudy OVC014 39 31     72% 33   30.2 30.21      
Jan 16 03:53 SW 8 9 Cloudy OVC014 38 30     73% 32   30.21 30.22      
Jan 16 03:34 SW 9 9 Cloudy OVC014 38 30     73% 31   30.21        
Jan 16 02:53 SW 10 10 Cloudy OVC015 38 30     73% 31   30.2 30.22      
Jan 16 02:37 SW 9 10 Cloudy OVC015 38 30     73% 31   30.2        
Jan 16 01:53 SSW 8 10 Cloudy OVC014 37 29     72% 31   30.19 30.2      
Jan 16 01:21 S 7 10 Cloudy OVC014 37 29     72% 32   30.19        
Jan 16 00:53 SSW 9 10 Cloudy OVC015 37 29     72% 30   30.2 30.21      
Jan 15 23:53 S 8 9 Cloudy OVC016 36 28     73% 30   30.21 30.22      
Jan 15 22:53 S 6 9 Cloudy OVC018 36 28     73% 31   30.22 30.23      
Jan 15 21:53 S 7 9 Cloudy OVC018 36 27     70% 30   30.23 30.24      
Jan 15 20:53 S 10 10 Cloudy OVC018 35 27     72% 27   30.23 30.24      
Jan 15 19:53 SSW 8 10 Cloudy OVC015 35 27     72% 29   30.24 30.25      
Jan 15 18:53 SSW 9 10 Cloudy OVC015 35 26     69% 28   30.24 30.25      
Jan 15 18:23 SSW 11 10 Cloudy OVC015 35 26     69% 27   30.24        
Jan 15 17:53 SW 9 10 Cloudy OVC014 35 26     69% 28   30.24 30.25      
Jan 15 16:53 SSW 11 9 Cloudy OVC014 35 27     72% 27   30.24 30.25      
Jan 15 15:53 WSW 8 9 Cloudy OVC014 35 26     69% 29   30.27 30.28      
May 15 07:53 Calm 10 Mostly Clear FEW065 75 68     79%   76 29.96 29.94      
May 15 04:53 SW 3 10 Clear CLR 75 67     76%   76 29.91 29.89      
May 14 19:53 SSW 8 10 Mostly Clear FEW070 86 65     50%   88 29.88 29.86      
May 14 18:53 SSW 10 10 Mostly Clear FEW065 88 64     45%   89 29.89 29.88      
May 14 12:53 WNW 11 10 Mostly Clear FEW055 87 66     50%   89 30.02 30      
May 14 11:53 NW 10 10 Partly Cloudy SCT065 86 66     51%   88 30.03 30.01      
May 14 00:53 S 6 10 Clear CLR 74 66     76%   75 29.99 29.97      
May 12 16:53 WSW 8 10 Clear   87 65     48%   89 30.04 30.02      
May 12 11:53 SW 9 10 Clear CLR 83 64     53%   84 30.09 30.08      
May 12 07:53 SSW 5 10 Clear CLR 73 62     68%   73 30.07 30.05      
May 12 04:53 S 7 10 Clear CLR 71 61     70%   71 30.02 30.01      
May 12 03:53 S 7 10 Clear CLR 72 61     68%   72 30.02 30      
May 12 01:53 SSW 7 10 Clear CLR 74 62     66%   74 30.01 29.99      
May 11 23:53 S 3 10 Clear CLR 75 62     64%   75 30 29.98      
May 11 16:53 SW 13 10 Clear CLR 87 61     42%   87 29.96 29.94      
Jun 12 07:53 S 5 10 Mostly Cloudy BKN070 76 69     79%   77 30.13 30.11      
Jun 12 05:53 Calm 10 Partly Cloudy SCT050 SCT070 72 66     82%   73 30.11 30.09      
Jun 11 17:53 S 9 10 Mostly Clear FEW070 86 63     46%   87 30.08 30.06      
Jun 11 06:53 Calm 10 Clear CLR 67 61     81%     30.12 30.1      
Jun 09 03:53 Calm 10 Clear CLR 57 54     89%     29.91 29.9      
Jun 09 00:53 Calm 10 Clear CLR 60 54     80%     29.92 29.91      
Jun 08 15:53 3 10 Partly Cloudy SCT047 74 53     48%   73 29.95 29.94      
Jun 08 14:53 Calm 10 Cloudy OVC060 71 52     51%   70 29.97 29.96      
Jun 06 09:53 ENE 8 10 Clear CLR 68 57     68%     29.93 29.92      
Jun 05 20:07 SSW 7 10 Clear CLR 68 65     90%     29.77        
Notice The following observation data may not be complete
Jun 05 19:19 5 5 Thunderstorms and Rain SCT026 BKN039 OVC100   63      %     29.72   0